SCP
0 0 0 0 0 0 0 0 0 0 1 1 1 0 1 1 1 1 2 2 2 3 3 3 3 2 2 3 4 5 6 6 6 7 7 7 7 6 6 5 4 4 3 2
0 0 0 0 0 0 0 0 0 0 1 1 1 1 1 1 1 2 2 2 2 3 3 3 3 3 3 3 4 6 6 6 7 7 7 7 7 6 6 6 5 4 3 3
1 0 0 0 0 0 0 1 1 0 1 1 2 2 2 2 2 2 2 2 3 3 3 3 4 4 4 4 4 6 7 7 7 7 7 7 6 6 6 6 5 4 4 4
1 1 0 0 0 0 1 1 1 1 1 2 2 2 2 2 3 2 2 2 2 3 3 3 4 4 4 4 4 6 7 8 8 7 7 6 6 6 6 6 6 5 5 5
1 0 0 0 0 0 1 1 1 1 2 2 2 2 2 2 3 3 3 3 2 2 3 3 3 4 4 4 4 5 6 8 8 7 6 6 7 7 8 7 7 7 6 6
1 1 1 1 1 1 1 1 2 1 2 2 2 2 2 2 3 3 3 3 3 3 3 4 4 4 4 4 3 4 5 6 6 6 6 6 8 9 9 8 8 6 5 5
1 1 1 1 1 1 1 2 2 2 2 2 2 2 2 2 2 3 3 2 2 3 3 4 4 5 5 5 4 4 4 5 4 5 5 6 8 10 9 8 7 5 5 5
1 1 1 2 2 2 2 2 2 2 1 2 2 3 3 3 3 3 2 2 2 3 4 5 5 6 7 6 5 4 4 4 4 5 5 5 7 8 8 7 5 4 4 4
1 2 2 2 2 2 2 1 1 1 2 2 3 3 4 4 4 3 3 3 3 4 5 6 7 8 8 8 6 5 4 5 6 6 6 5 5 6 6 5 4 3 3 4
2 2 2 2 2 2 2 1 2 2 2 3 3 3 4 4 4 4 4 3 3 4 5 7 8 9 8 8 6 5 5 6 6 6 6 5 4 4 4 4 3 3 3 3
2 2 2 2 2 1 1 2 2 2 3 3 3 3 3 4 4 4 4 4 4 5 6 7 9 9 8 8 7 6 5 5 5 5 4 4 4 3 3 2 2 2 2 1
2 2 2 2 1 1 1 1 2 2 2 2 2 3 3 3 4 4 5 5 5 5 6 7 8 8 7 7 7 6 6 5 4 3 3 3 3 2 2 1 1 1 1 0
2 2 2 1 1 1 1 1 1 1 1 1 2 2 2 3 3 3 4 4 5 5 5 5 5 5 5 6 6 6 5 4 3 3 2 2 2 2 2 1 1 0 0 0
2 2 1 1 1 1 1 1 1 1 1 1 1 1 1 2 2 3 3 3 3 3 3 3 3 3 3 4 4 5 4 3 2 2 2 2 2 2 1 1 1 1 0 0
1 1 2 1 1 1 0 0 0 0 1 1 1 1 1 2 2 2 2 2 2 2 2 2 2 2 3 3 4 4 3 2 2 2 2 2 2 1 1 1 1 1 1 1
2 2 2 1 1 0 0 0 0 0 1 1 1 1 2 2 2 2 2 1 1 1 1 1 2 2 3 3 3 3 2 1 1 2 2 2 1 1 1 1 1 1 1 1
2 2 1 1 0 0 0 0 0 0 1 1 1 1 1 1 2 1 1 1 1 1 1 1 2 2 2 2 2 1 1 1 1 1 1 1 1 1 1 1 1 1 1 1
1 1 0 0 0 0 0 0 0 0 0 0 0 0 1 1 1 1 1 1 1 1 1 1 1 1 2 2 1 1 1 1 1 1 1 1 1 1 1 1 1 1 1 1
0 0 0 0 0 0 0 0 0 0 0 0 0 0 0 0 0 0 0 0 1 1 1 1 1 1 1 1 1 1 1 1 1 1 1 1 1 1 1 1 1 1 1 1
0 0 0 0 0 0 0 0 0 0 0 0 0 0 0 0 0 0 0 0 0 1 1 1 1 1 1 1 1 0 1 1 1 1 1 1 1 1 1 1 1 1 1 0
0 0 0 0 0 0 0 0 0 0 0 0 0 0 0 0 0 0 0 1 1 1 1 0 0 1 1 0 0 0 0 0 0 1 1 1 1 1 1 1 1 1 1 0
0 0 0 0 0 0 0 0 0 0 0 0 0 0 0 0 0 0 1 1 1 0 0 0 0 0 0 0 0 0 0 0 0 0 0 0 1 1 0 1 1 1 0 0
0 0 0 0 0 0 0 0 0 0 0 0 0 0 0 1 0 0 1 1 0 0 0 0 0 0 0 0 0 0 0 0 0 0 0 0 0 0 0 0 0 0 0 0
0 0 0 0 0 0 0 0 0 0 0 0 0 0 0 0 1 0 0 0 0 0 0 0 0 0 0 0 0 0 0 0 0 0 0 0 0 0 0 0 0 0 0 0
0 0 0 0 0 0 0 0 0 0 0 0 0 0 0 0 0 0 1 0 0 0 0 0 0 0 0 0 0 0 0 0 0 0 0 0 0 0 0 0 0 0 0 0
0 0 0 0 0 0 0 0 0 0 0 0 0 0 0 0 0 0 0 0 0 0 0 0 0 0 0 0 0 0 0 0 0 0 0 0 0 0 0 0 0 0 0 0
0 0 0 0 0 0 0 0 0 0 0 0 0 0 0 0 0 0 0 0 0 0 0 1 0 0 0 0 0 0 0 0 0 0 0 0 0 0 0 0 0 0 0 0
Wind_Speed
8 8 13 15 15 11 9 8 8 5 4 6 5 4 6 6 9 9 10 10 9 8 7 6 6 5 4 3 3 2 2 3 3 3 3 4 4 5 5 5 7 5 6 6
12 12 12 14 12 10 10 9 8 6 2 5 5 4 4 5 7 8 9 10 9 9 8 7 6 6 5 4 4 4 3 3 3 3 4 4 5 5 5 5 5 6 6 7
12 12 13 12 10 10 8 7 5 3 2 6 5 4 4 4 5 6 8 8 9 8 8 7 6 5 5 5 4 4 4 4 4 4 4 4 6 5 5 5 5 6 6 7
11 11 13 9 7 7 6 4 2 2 4 5 4 4 4 4 5 5 6 6 7 8 8 8 7 7 5 6 5 5 5 5 4 4 5 4 4 5 5 4 5 6 6 7
9 11 11 9 7 6 5 2 1 2 3 3 4 3 4 7 6 5 5 5 6 7 8 8 8 7 6 5 5 5 5 4 4 4 4 4 5 5 5 5 6 6 7 7
10 12 10 4 4 7 4 0 4 4 4 3 0 1 3 7 6 5 5 5 5 6 6 7 7 7 6 6 5 5 4 3 3 3 4 5 5 5 5 5 6 7 8 7
11 12 5 4 3 4 3 1 4 5 4 2 1 2 4 5 5 5 5 6 6 5 5 6 6 6 6 5 5 4 4 3 4 4 5 6 6 5 5 6 7 7 8 8
6 7 3 7 6 3 3 6 6 5 4 2 2 3 3 3 4 4 5 5 6 5 5 5 6 6 5 5 4 3 3 4 4 4 6 7 5 5 6 6 8 8 8 8
1 2 3 3 3 2 3 5 6 6 5 5 3 2 2 3 4 3 3 4 4 5 5 5 5 5 5 4 3 3 4 4 4 5 5 6 6 7 6 7 7 7 6 5
1 5 6 4 5 2 1 2 5 6 7 6 5 4 3 3 3 2 1 1 1 3 4 5 5 5 4 3 3 4 5 5 5 6 7 7 6 7 7 6 6 5 4 5
2 4 6 8 5 3 5 7 8 9 9 9 8 8 8 6 5 3 2 2 1 1 1 3 4 5 4 4 3 4 5 5 6 8 8 7 7 7 8 7 7 6 5 5
3 3 4 6 5 6 8 8 9 10 11 11 10 9 8 8 6 5 4 4 3 2 2 1 1 3 3 4 4 4 5 6 7 7 7 7 6 7 10 12 12 12 12 11
5 5 7 7 7 8 8 9 10 11 11 11 11 10 9 8 7 6 6 5 4 3 3 2 2 2 3 3 4 4 6 6 7 8 8 7 7 7 7 7 10 12 14 14
6 6 8 8 8 9 9 10 11 11 11 11 10 10 9 9 8 8 7 7 6 6 5 4 4 4 4 3 3 5 7 8 8 8 8 8 8 8 7 7 6 6 8 12
6 7 9 8 8 9 9 9 9 10 10 10 10 10 10 9 9 8 8 8 7 7 7 7 6 6 5 5 5 7 8 8 7 7 8 9 8 8 7 7 6 7 5 4
9 9 9 8 8 8 8 9 8 8 9 9 9 9 9 8 8 8 8 8 8 8 7 7 7 7 7 8 8 8 7 11 11 9 10 9 8 8 7 6 6 6 5 4
8 7 7 7 7 7 8 8 8 8 9 9 8 8 8 8 8 8 8 8 7 7 6 6 6 8 8 8 9 9 10 10 10 9 9 8 8 8 7 6 6 6 5 4
9 8 8 7 6 6 7 7 8 8 8 9 9 8 8 7 8 8 8 9 8 7 6 6 7 9 9 9 8 9 10 10 10 10 9 7 7 7 7 7 7 8 5 4
7 6 5 4 5 5 6 7 7 8 8 8 8 8 8 7 7 8 8 9 9 7 6 8 10 10 10 8 9 8 10 12 11 10 9 8 6 6 7 6 6 6 5 4
3 2 2 3 4 5 6 7 8 8 8 9 9 8 8 7 7 8 8 8 6 6 6 8 10 9 8 8 11 11 12 13 12 10 8 8 7 6 6 6 5 5 6 5
2 3 4 6 7 7 8 9 9 10 9 9 9 9 8 8 8 8 8 8 4 4 7 9 7 7 8 10 13 12 13 12 11 9 8 7 7 6 6 6 5 5 5 4
5 6 7 8 9 9 9 9 10 11 11 10 10 10 9 9 9 8 7 6 5 3 6 8 8 7 9 12 12 12 12 11 10 8 7 7 7 6 6 6 5 5 4 4
6 7 8 9 10 11 11 11 12 11 10 10 10 10 10 8 8 9 9 6 6 5 7 8 7 7 10 11 11 11 11 10 9 8 7 6 7 6 6 6 5 5 5 3
8 9 9 10 11 12 12 12 11 9 10 11 10 9 8 8 7 7 7 6 5 6 8 7 6 8 10 9 9 9 9 8 8 8 7 7 6 6 5 5 5 5 4 4
10 10 11 11 11 10 11 11 11 10 11 8 9 8 7 7 7 8 8 9 8 8 8 7 6 7 8 9 9 8 8 7 8 8 7 7 6 6 5 5 5 5 3 3
9 9 9 9 9 9 10 10 9 9 8 8 8 8 8 7 9 8 7 9 10 7 7 7 7 8 8 8 8 8 8 7 7 7 7 7 7 6 5 5 7 5 4 3
10 9 7 8 8 8 8 8 8 9 8 8 9 9 9 9 9 9 10 8 7 7 7 7 7 7 7 7 7 7 7 6 6 7 7 7 6 6 6 7 5 5 4 4
Wind_Direction
273 222 221 243 251 253 256 265 272 261 209 183 199 178 165 170 165 166 165 166 164 160 156 157 161 165 180 182 170 173 200 233 238 233 243 254 258 261 263 265 273 274 276 277
282 269 260 266 266 263 262 262 265 262 224 124 145 154 156 169 169 171 172 173 170 166 161 163 170 178 181 185 178 176 207 240 245 243 251 257 260 260 262 265 270 272 272 275
283 296 293 280 276 272 267 264 259 258 134 138 146 145 148 159 178 180 176 175 170 166 161 163 169 171 178 185 184 190 206 232 243 246 256 259 271 276 277 278 278 276 275 275
278 279 276 277 258 258 245 236 220 140 133 133 137 150 155 165 175 178 173 171 163 162 159 163 166 172 181 193 191 200 212 224 235 244 258 264 267 269 271 274 277 277 276 275
272 272 270 282 303 302 271 233 33 129 123 126 140 166 159 151 154 165 168 149 149 164 168 164 169 172 176 200 205 211 220 221 234 244 258 265 268 268 271 271 274 275 276 270
255 266 272 282 315 313 312 263 25 56 67 57 94 201 99 134 151 159 149 136 149 168 161 157 168 167 177 202 214 223 232 230 235 243 253 262 267 267 269 269 271 274 275 274
257 268 280 353 338 311 262 76 44 54 60 38 8 52 96 127 135 139 142 148 154 163 164 163 164 165 184 207 217 224 232 235 235 238 247 251 251 250 254 264 270 273 276 274
253 274 299 3 23 39 4 350 10 28 22 9 43 82 118 126 120 142 158 167 169 165 166 159 159 170 194 213 221 226 234 245 250 249 261 268 257 252 253 259 268 267 264 266
129 147 93 49 74 64 1 343 352 350 353 11 19 35 88 109 121 140 164 173 178 169 164 161 166 180 208 214 220 237 243 252 259 264 260 264 266 265 259 254 258 264 266 273
100 126 132 108 84 68 352 1 352 2 9 4 14 17 31 77 97 103 117 140 149 163 174 175 179 187 204 211 219 240 253 257 259 260 259 257 253 261 264 265 266 270 276 283
77 108 121 77 59 26 26 31 26 20 16 19 25 29 29 35 54 51 44 48 65 84 215 198 186 188 198 205 214 238 255 262 267 267 266 260 257 252 255 256 260 263 273 281
90 95 83 89 55 34 42 40 38 33 32 28 27 30 37 36 38 37 30 18 16 354 309 291 216 201 208 215 221 238 255 261 269 273 273 273 270 268 250 244 250 242 239 246
64 73 85 79 63 51 52 52 51 47 41 35 31 28 32 34 31 27 25 19 10 351 337 335 316 286 252 236 231 242 260 271 277 280 283 283 282 280 280 269 249 244 245 244
68 77 78 66 62 52 50 52 52 50 43 39 34 32 33 33 32 26 21 12 7 357 348 345 332 321 317 304 271 258 264 270 269 269 271 274 276 277 277 280 282 274 249 234
93 96 93 81 69 61 52 49 47 44 39 35 32 30 26 25 23 19 15 7 2 353 353 346 334 328 332 321 300 285 280 277 275 277 279 278 275 277 278 278 278 284 281 238
97 90 90 83 70 57 49 44 39 33 30 27 24 20 18 18 15 13 7 2 355 347 341 336 334 339 343 333 316 299 283 274 271 275 278 279 280 281 281 279 282 281 277 273
108 100 89 76 65 50 38 31 26 21 16 12 7 5 5 7 4 3 356 351 343 329 330 339 349 348 332 316 309 304 300 295 281 271 271 273 277 280 283 282 284 285 280 274
82 75 68 56 43 34 22 15 10 5 360 353 349 353 354 354 353 349 343 337 328 321 338 356 352 332 316 317 317 309 304 300 297 291 283 276 277 281 283 283 285 288 283 270
85 76 66 48 26 13 3 357 351 347 342 338 339 342 342 347 347 339 335 327 317 321 353 351 338 320 315 326 323 305 301 298 295 291 289 288 285 283 284 284 287 289 287 290
90 73 37 13 1 354 343 338 336 333 330 329 327 325 326 328 329 327 323 312 319 345 343 338 325 314 320 345 338 315 305 300 298 299 299 296 292 292 288 289 291 293 293 293
4 356 352 345 342 336 333 333 326 319 318 319 318 315 315 316 314 311 305 306 329 352 330 320 313 327 340 335 316 306 302 301 303 304 302 301 299 298 295 294 294 297 299 301
346 338 333 330 326 323 323 319 311 308 308 306 308 311 311 306 303 302 298 298 310 348 326 319 319 337 333 320 310 306 305 305 307 305 307 309 306 302 297 299 299 301 305 306
326 324 320 318 315 312 310 307 302 302 303 305 305 300 297 298 296 295 297 306 319 332 318 312 322 317 310 308 307 309 311 311 311 311 315 313 309 306 304 310 311 308 307 316
312 310 309 309 306 303 298 296 297 298 295 291 287 284 284 286 288 291 304 317 318 312 308 308 302 300 299 303 310 317 319 319 318 317 318 316 317 319 322 322 319 310 312 332
300 299 297 295 294 292 296 298 297 290 286 289 296 302 301 303 307 312 313 310 306 303 309 315 313 308 305 313 319 324 325 331 332 329 325 325 325 327 329 324 321 320 331 346
287 284 285 286 287 287 288 288 289 294 301 305 307 309 313 313 311 308 303 307 313 321 319 322 325 321 323 325 329 332 332 332 329 328 333 330 330 333 331 333 328 331 337 342
291 287 281 280 287 294 299 301 303 306 309 309 311 314 311 306 304 307 310 312 319 324 327 327 327 327 325 329 338 342 341 342 342 343 340 338 339 340 343 340 337 338 342 352